QPF
0.00 0.00 0.00 0.00 0.00 0.00 0.00 0.04 0.12 0.12 0.04 0.08 0.08 0.02 0.00 0.00 0.00 0.00 0.00 0.00 0.00 0.00 0.00 0.00 0.00 0.00 0.00 0.00 0.00 0.00 0.00 0.00 0.00 0.00 0.00 0.00 0.00 0.00 0.00 0.00 0.00 0.00 0.00
0.00 0.00 0.00 0.00 0.00 0.00 0.09 0.19 0.10 0.03 0.08 0.07 0.01 0.00 0.00 0.00 0.00 0.00 0.00 0.00 0.00 0.00 0.00 0.00 0.00 0.00 0.00 0.00 0.00 0.00 0.00 0.00 0.00 0.00 0.00 0.00 0.00 0.00 0.00 0.00 0.00 0.00 0.00
0.00 0.00 0.00 0.00 0.00 0.05 0.16 0.11 0.01 0.02 0.01 0.00 0.00 0.00 0.00 0.00 0.00 0.00 0.00 0.00 0.00 0.00 0.00 0.00 0.00 0.00 0.00 0.00 0.00 0.00 0.00 0.00 0.00 0.00 0.00 0.00 0.00 0.00 0.00 0.00 0.00 0.00 0.00
0.00 0.00 0.00 0.00 0.00 0.09 0.07 0.01 0.00 0.01 0.00 0.00 0.00 0.00 0.00 0.00 0.00 0.00 0.00 0.00 0.00 0.00 0.00 0.00 0.00 0.00 0.00 0.00 0.00 0.00 0.00 0.00 0.00 0.00 0.00 0.00 0.00 0.00 0.00 0.00 0.00 0.00 0.00
0.00 0.00 0.00 0.01 0.05 0.04 0.01 0.00 0.00 0.00 0.00 0.00 0.00 0.00 0.00 0.00 0.00 0.00 0.00 0.00 0.00 0.00 0.00 0.00 0.00 0.00 0.00 0.00 0.00 0.00 0.00 0.00 0.00 0.00 0.00 0.00 0.00 0.00 0.00 0.00 0.00 0.00 0.00
0.00 0.00 0.00 0.02 0.02 0.00 0.00 0.00 0.00 0.00 0.00 0.00 0.00 0.00 0.00 0.00 0.00 0.00 0.00 0.00 0.00 0.00 0.00 0.00 0.00 0.00 0.00 0.00 0.00 0.00 0.00 0.00 0.00 0.00 0.00 0.00 0.00 0.00 0.00 0.00 0.00 0.00 0.00
0.00 0.02 0.03 0.03 0.00 0.00 0.00 0.00 0.00 0.00 0.00 0.00 0.00 0.00 0.00 0.00 0.00 0.00 0.00 0.00 0.00 0.00 0.00 0.00 0.00 0.00 0.00 0.00 0.00 0.00 0.00 0.00 0.00 0.00 0.00 0.00 0.00 0.00 0.00 0.00 0.00 0.00 0.00
0.01 0.02 0.02 0.01 0.00 0.00 0.00 0.00 0.00 0.00 0.00 0.00 0.00 0.00 0.00 0.00 0.00 0.00 0.00 0.00 0.00 0.00 0.00 0.00 0.00 0.00 0.00 0.00 0.00 0.00 0.00 0.00 0.00 0.00 0.00 0.00 0.00 0.00 0.00 0.00 0.00 0.00 0.00
0.00 0.01 0.00 0.00 0.00 0.00 0.00 0.00 0.00 0.00 0.00 0.00 0.00 0.00 0.00 0.00 0.00 0.00 0.00 0.00 0.00 0.00 0.00 0.00 0.00 0.00 0.00 0.00 0.00 0.00 0.00 0.00 0.00 0.00 0.00 0.00 0.00 0.00 0.00 0.00 0.00 0.00 0.00
0.00 0.00 0.00 0.00 0.00 0.00 0.00 0.00 0.00 0.00 0.00 0.00 0.00 0.00 0.00 0.00 0.00 0.00 0.00 0.00 0.00 0.00 0.00 0.00 0.00 0.00 0.00 0.00 0.00 0.00 0.00 0.00 0.00 0.00 0.00 0.00 0.00 0.00 0.00 0.00 0.00 0.00 0.00
0.01 0.00 0.00 0.00 0.00 0.00 0.00 0.00 0.00 0.00 0.00 0.00 0.00 0.00 0.00 0.00 0.00 0.00 0.00 0.00 0.00 0.00 0.00 0.00 0.00 0.00 0.00 0.00 0.00 0.00 0.00 0.00 0.00 0.00 0.00 0.00 0.00 0.00 0.00 0.00 0.00 0.00 0.00
0.00 0.00 0.00 0.00 0.00 0.00 0.00 0.00 0.00 0.00 0.00 0.00 0.00 0.00 0.00 0.00 0.00 0.00 0.00 0.00 0.00 0.00 0.00 0.00 0.00 0.00 0.00 0.00 0.00 0.00 0.00 0.00 0.00 0.00 0.00 0.00 0.00 0.00 0.00 0.00 0.00 0.00 0.00
0.00 0.00 0.00 0.00 0.00 0.00 0.00 0.00 0.00 0.00 0.00 0.00 0.00 0.00 0.00 0.00 0.00 0.00 0.00 0.00 0.00 0.00 0.00 0.00 0.00 0.00 0.00 0.00 0.00 0.00 0.00 0.00 0.00 0.00 0.00 0.00 0.00 0.00 0.00 0.00 0.00 0.00 0.00
0.00 0.00 0.00 0.00 0.00 0.00 0.00 0.00 0.00 0.00 0.00 0.00 0.00 0.00 0.00 0.00 0.00 0.00 0.00 0.00 0.00 0.00 0.00 0.00 0.00 0.00 0.00 0.00 0.00 0.00 0.00 0.00 0.00 0.00 0.00 0.00 0.00 0.00 0.00 0.00 0.00 0.00 0.00
0.00 0.00 0.00 0.00 0.00 0.00 0.00 0.00 0.00 0.00 0.00 0.00 0.00 0.00 0.00 0.00 0.00 0.00 0.00 0.00 0.00 0.00 0.00 0.00 0.00 0.00 0.00 0.00 0.00 0.00 0.00 0.00 0.00 0.00 0.00 0.00 0.00 0.00 0.00 0.00 0.00 0.00 0.00
0.00 0.00 0.00 0.00 0.00 0.00 0.00 0.00 0.00 0.00 0.00 0.00 0.00 0.00 0.00 0.00 0.00 0.00 0.00 0.00 0.00 0.00 0.00 0.00 0.00 0.00 0.00 0.00 0.00 0.00 0.00 0.00 0.00 0.00 0.00 0.00 0.00 0.00 0.00 0.00 0.00 0.00 0.00
0.00 0.00 0.00 0.00 0.00 0.00 0.00 0.00 0.00 0.00 0.00 0.00 0.00 0.00 0.00 0.00 0.00 0.00 0.00 0.00 0.00 0.00 0.00 0.00 0.00 0.00 0.00 0.00 0.00 0.00 0.00 0.00 0.00 0.00 0.00 0.00 0.00 0.00 0.00 0.00 0.00 0.00 0.00
0.00 0.00 0.00 0.00 0.00 0.00 0.00 0.00 0.00 0.00 0.00 0.00 0.00 0.00 0.00 0.00 0.00 0.00 0.00 0.00 0.00 0.00 0.00 0.00 0.00 0.00 0.00 0.00 0.00 0.00 0.00 0.00 0.00 0.00 0.00 0.00 0.00 0.00 0.00 0.00 0.00 0.00 0.00
0.00 0.00 0.00 0.00 0.00 0.00 0.00 0.00 0.00 0.00 0.00 0.00 0.00 0.00 0.00 0.00 0.00 0.00 0.00 0.00 0.00 0.00 0.00 0.00 0.00 0.00 0.00 0.00 0.00 0.00 0.00 0.00 0.00 0.00 0.00 0.00 0.00 0.00 0.00 0.00 0.00 0.00 0.00
0.00 0.00 0.00 0.00 0.00 0.00 0.00 0.00 0.00 0.00 0.00 0.00 0.00 0.00 0.00 0.00 0.00 0.00 0.00 0.00 0.00 0.00 0.00 0.00 0.00 0.00 0.00 0.00 0.00 0.00 0.00 0.00 0.00 0.00 0.00 0.00 0.00 0.00 0.00 0.00 0.00 0.00 0.00
0.00 0.00 0.00 0.00 0.00 0.00 0.00 0.00 0.00 0.00 0.00 0.00 0.00 0.00 0.00 0.00 0.00 0.00 0.00 0.00 0.00 0.00 0.00 0.00 0.00 0.00 0.00 0.00 0.00 0.00 0.00 0.00 0.00 0.00 0.00 0.00 0.00 0.00 0.00 0.00 0.00 0.00 0.00
0.00 0.00 0.00 0.00 0.00 0.00 0.00 0.00 0.00 0.00 0.00 0.00 0.00 0.00 0.00 0.00 0.00 0.00 0.00 0.00 0.00 0.00 0.00 0.00 0.00 0.00 0.00 0.00 0.00 0.00 0.00 0.00 0.00 0.00 0.00 0.00 0.00 0.00 0.00 0.00 0.00 0.00 0.00
0.00 0.00 0.00 0.00 0.00 0.00 0.00 0.00 0.00 0.00 0.00 0.00 0.00 0.00 0.00 0.00 0.00 0.00 0.00 0.00 0.00 0.00 0.00 0.00 0.00 0.00 0.00 0.00 0.00 0.00 0.00 0.00 0.00 0.00 0.00 0.00 0.00 0.00 0.00 0.00 0.00 0.00 0.00
0.00 0.00 0.00 0.00 0.00 0.00 0.00 0.00 0.00 0.00 0.00 0.00 0.00 0.00 0.00 0.00 0.00 0.00 0.00 0.00 0.00 0.00 0.00 0.00 0.00 0.00 0.00 0.00 0.00 0.00 0.00 0.00 0.00 0.00 0.00 0.00 0.00 0.00 0.00 0.00 0.00 0.00 0.00
0.00 0.00 0.00 0.00 0.00 0.00 0.00 0.00 0.00 0.00 0.00 0.00 0.00 0.00 0.00 0.00 0.00 0.00 0.00 0.00 0.00 0.00 0.00 0.00 0.00 0.00 0.00 0.00 0.00 0.00 0.00 0.00 0.00 0.00 0.00 0.00 0.00 0.00 0.00 0.00 0.00 0.00 0.00
0.00 0.00 0.00 0.00 0.00 0.00 0.00 0.00 0.00 0.00 0.00 0.00 0.00 0.00 0.00 0.00 0.01 0.01 0.00 0.00 0.00 0.00 0.00 0.00 0.00 0.00 0.00 0.00 0.00 0.00 0.00 0.00 0.00 0.00 0.00 0.00 0.00 0.00 0.00 0.00 0.00 0.00 0.00
MSLP
1013.73 1014.18 1014.27 1014.58 1015.07 1015.95 1016.32 1016.52 1016.50 1016.12 1016.38 1016.75 1017.10 1017.31 1017.48 1017.61 1017.87 1017.87 1018.06 1018.40 1018.44 1018.45 1018.68 1018.84 1018.71 1018.55 1018.57 1018.35 1018.21 1018.17 1018.27 1018.23 1018.44 1019.42 1019.48 1019.38 1019.49 1019.38 1019.31 1019.83 1019.97 1020.23 1020.37
1013.62 1014.32 1014.36 1014.67 1015.38 1015.92 1016.20 1016.55 1016.50 1016.48 1016.81 1017.10 1017.35 1017.59 1017.85 1018.00 1018.15 1018.28 1018.46 1018.74 1018.74 1018.97 1019.24 1019.42 1019.42 1019.26 1019.18 1019.27 1018.95 1018.94 1018.96 1018.66 1018.95 1019.52 1019.90 1019.90 1019.78 1019.49 1019.13 1019.12 1019.11 1019.59 1020.01
1013.34 1014.09 1014.84 1015.24 1015.61 1015.77 1016.02 1016.19 1016.51 1016.71 1016.94 1017.41 1017.73 1018.04 1018.16 1018.30 1018.64 1018.73 1018.92 1019.06 1019.18 1019.40 1019.75 1019.99 1019.97 1019.93 1020.03 1019.84 1019.74 1019.71 1019.59 1019.22 1019.21 1019.68 1020.05 1020.04 1020.09 1019.95 1019.65 1019.25 1019.33 1019.23 1019.55
1012.53 1013.46 1014.23 1014.72 1014.95 1015.19 1015.48 1016.25 1016.58 1016.88 1017.23 1017.72 1018.09 1018.10 1018.20 1018.47 1018.86 1019.02 1019.20 1019.34 1019.53 1020.02 1020.48 1020.72 1020.78 1020.88 1020.86 1020.49 1020.65 1020.53 1020.28 1019.81 1019.61 1019.73 1020.15 1020.53 1020.77 1020.70 1020.60 1020.51 1020.25 1020.07 1019.87
1012.20 1013.05 1013.75 1014.14 1014.47 1015.00 1015.77 1016.44 1016.72 1017.10 1017.60 1017.82 1017.96 1018.13 1018.29 1018.67 1018.94 1019.25 1019.44 1019.66 1019.98 1020.66 1021.12 1021.32 1021.40 1021.42 1021.17 1021.11 1021.22 1021.26 1020.92 1020.78 1020.68 1020.47 1020.86 1021.28 1021.80 1021.76 1021.69 1021.38 1020.98 1020.51 1020.16
1011.65 1012.47 1013.19 1013.66 1014.19 1015.07 1015.84 1016.51 1017.01 1017.43 1017.52 1017.81 1017.93 1018.14 1018.59 1019.11 1019.36 1019.58 1019.55 1019.95 1020.38 1020.95 1021.33 1021.48 1021.55 1021.55 1021.58 1021.58 1021.61 1021.73 1021.82 1021.83 1021.70 1021.71 1021.98 1022.31 1022.57 1022.56 1022.26 1022.04 1021.58 1021.29 1020.75
1011.20 1012.01 1012.78 1013.63 1014.43 1015.08 1015.76 1016.33 1016.85 1017.21 1017.46 1017.74 1018.06 1018.52 1019.22 1019.64 1019.72 1019.79 1019.80 1020.09 1020.37 1020.81 1020.97 1021.17 1021.06 1021.54 1021.65 1021.95 1022.02 1022.00 1022.16 1022.21 1022.03 1022.23 1022.62 1022.93 1022.93 1022.80 1022.55 1022.20 1021.84 1021.45 1021.35
1011.10 1011.94 1012.76 1013.57 1014.36 1014.99 1015.53 1016.11 1016.69 1017.12 1017.55 1017.80 1018.27 1018.99 1019.58 1020.00 1019.98 1020.09 1020.24 1020.51 1020.67 1020.88 1021.11 1021.26 1021.52 1022.00 1022.19 1022.11 1022.12 1022.26 1022.58 1022.73 1022.70 1022.66 1022.98 1022.94 1022.92 1022.89 1022.66 1022.30 1021.94 1021.47 1021.56
1010.82 1011.71 1012.53 1013.37 1014.11 1014.76 1015.38 1016.02 1016.44 1016.89 1017.41 1017.92 1018.52 1019.19 1019.76 1020.18 1020.25 1020.43 1020.66 1020.84 1021.15 1021.38 1021.66 1021.66 1021.90 1022.31 1022.42 1022.36 1022.31 1022.38 1022.56 1022.95 1023.05 1022.93 1022.83 1022.86 1022.99 1022.94 1022.76 1022.54 1022.44 1022.11 1021.96
1010.55 1011.34 1012.29 1013.18 1013.85 1014.58 1015.19 1015.80 1016.19 1016.72 1017.33 1017.93 1018.59 1019.16 1019.75 1020.20 1020.46 1020.82 1021.12 1021.10 1021.41 1021.56 1021.87 1022.14 1022.16 1022.46 1022.57 1022.53 1022.46 1022.34 1022.52 1022.43 1022.32 1022.40 1022.56 1022.72 1022.85 1022.94 1022.87 1022.82 1022.88 1022.79 1022.50
1010.21 1011.20 1012.19 1013.05 1013.71 1014.49 1015.15 1015.63 1016.14 1016.69 1017.28 1017.93 1018.58 1019.18 1019.73 1020.21 1020.57 1020.94 1021.19 1021.38 1020.91 1021.21 1021.53 1022.07 1022.54 1022.69 1022.78 1022.67 1022.50 1022.59 1022.76 1022.90 1022.59 1022.23 1022.12 1022.32 1022.37 1022.68 1022.76 1022.68 1022.71 1022.74 1022.77
1009.82 1011.02 1012.00 1012.81 1013.47 1014.30 1014.90 1015.50 1016.10 1016.67 1017.31 1018.03 1018.66 1019.28 1019.67 1020.01 1020.42 1020.81 1021.04 1021.10 1020.86 1020.76 1020.95 1021.70 1022.59 1022.96 1023.04 1022.94 1022.80 1022.64 1022.77 1022.93 1022.54 1022.18 1022.14 1022.37 1022.49 1022.58 1022.58 1022.36 1022.34 1022.28 1022.18
1009.69 1010.83 1011.77 1012.67 1013.28 1013.95 1014.55 1015.24 1015.98 1016.59 1017.20 1017.77 1018.36 1018.78 1019.20 1019.82 1020.29 1020.64 1020.83 1020.99 1020.76 1020.63 1021.06 1021.47 1022.21 1022.75 1022.97 1023.10 1022.96 1022.79 1022.89 1022.78 1022.26 1022.24 1022.41 1022.57 1022.52 1022.25 1022.05 1022.18 1022.01 1021.76 1021.48
1009.12 1010.32 1011.44 1012.34 1013.09 1013.74 1014.32 1014.89 1015.31 1015.93 1016.49 1017.06 1017.56 1017.89 1018.49 1019.32 1019.74 1020.28 1020.74 1020.88 1020.83 1020.74 1021.10 1021.49 1021.85 1022.21 1022.38 1022.52 1022.33 1022.52 1022.71 1022.57 1022.46 1022.35 1022.55 1022.42 1022.19 1021.97 1022.07 1022.06 1022.10 1021.81 1021.44
1009.01 1009.77 1010.75 1011.84 1012.61 1013.28 1013.78 1014.19 1014.47 1014.96 1015.25 1015.84 1016.40 1016.91 1017.46 1018.21 1018.78 1019.45 1019.87 1020.13 1020.34 1020.68 1021.19 1021.59 1021.88 1021.98 1021.90 1021.92 1022.12 1021.96 1022.04 1022.32 1022.51 1022.30 1022.25 1022.19 1022.14 1021.95 1022.14 1022.13 1021.98 1021.85 1021.84
1008.39 1009.34 1010.18 1010.89 1011.92 1012.62 1013.21 1014.13 1014.40 1014.31 1014.71 1015.10 1015.60 1016.16 1016.54 1017.18 1017.92 1018.67 1019.27 1019.71 1020.01 1020.27 1020.61 1020.83 1021.04 1021.07 1021.14 1020.95 1020.89 1021.15 1021.31 1021.63 1021.97 1021.99 1022.06 1022.07 1022.06 1021.84 1022.23 1022.13 1021.84 1021.85 1021.79
1007.25 1008.50 1009.52 1010.12 1010.71 1011.48 1012.10 1012.77 1013.72 1014.70 1014.65 1014.68 1015.06 1015.51 1015.84 1016.33 1016.98 1017.89 1018.68 1019.23 1019.53 1019.73 1019.80 1019.81 1019.87 1019.85 1019.83 1020.01 1020.05 1020.16 1020.55 1021.00 1021.50 1021.91 1021.89 1021.68 1021.63 1021.80 1021.78 1021.92 1021.72 1021.59 1021.75
1006.50 1007.36 1008.17 1008.73 1009.53 1010.02 1010.73 1011.42 1012.24 1013.13 1013.81 1014.48 1014.76 1014.85 1015.19 1015.69 1016.25 1017.07 1017.91 1018.68 1019.42 1019.57 1019.25 1019.12 1019.00 1018.79 1018.66 1018.75 1019.45 1019.82 1020.00 1020.49 1020.81 1021.16 1021.28 1021.33 1021.37 1021.51 1021.46 1021.51 1021.44 1021.34 1021.52
1005.74 1006.34 1006.91 1007.76 1008.23 1008.88 1009.60 1010.16 1011.07 1011.76 1012.50 1013.26 1013.94 1014.69 1015.10 1015.42 1015.91 1016.49 1017.17 1017.57 1018.06 1018.55 1018.81 1018.76 1018.64 1018.17 1018.22 1018.38 1018.41 1019.00 1019.55 1020.06 1020.66 1020.90 1020.91 1020.98 1021.16 1021.16 1021.06 1021.13 1021.14 1021.19 1021.19
1004.84 1005.01 1005.85 1006.60 1007.10 1007.82 1008.61 1009.00 1009.55 1010.17 1011.04 1011.69 1012.37 1013.25 1014.63 1015.61 1016.18 1016.45 1016.66 1016.75 1017.01 1017.16 1017.24 1017.34 1017.61 1017.63 1017.40 1017.49 1017.96 1018.39 1019.08 1019.45 1019.95 1020.44 1020.92 1020.86 1020.78 1020.85 1021.05 1021.06 1021.02 1020.97 1020.96
1003.75 1004.29 1004.82 1005.40 1005.82 1006.54 1007.13 1007.82 1008.16 1008.54 1009.17 1010.04 1010.73 1011.64 1012.91 1013.87 1014.40 1014.88 1015.26 1015.43 1015.48 1015.63 1015.87 1016.25 1015.93 1015.59 1015.90 1016.33 1017.04 1017.63 1017.81 1018.18 1018.32 1018.82 1019.59 1020.09 1020.11 1020.19 1020.17 1020.28 1020.34 1020.56 1020.52
1002.97 1003.22 1003.74 1004.01 1004.59 1005.26 1005.71 1006.19 1006.78 1007.32 1007.76 1008.56 1009.41 1010.50 1011.79 1012.86 1013.02 1013.25 1013.57 1013.92 1014.08 1014.40 1014.58 1014.67 1014.79 1015.30 1014.66 1014.37 1014.62 1015.69 1016.54 1017.36 1017.99 1018.13 1018.53 1019.03 1019.38 1019.48 1019.63 1019.76 1019.95 1019.97 1020.29
1002.10 1002.27 1002.49 1003.12 1003.31 1003.77 1004.61 1005.13 1005.59 1005.98 1006.36 1006.81 1007.84 1008.95 1010.37 1010.84 1011.49 1011.60 1011.85 1012.27 1012.58 1012.67 1012.58 1013.15 1013.27 1013.30 1013.65 1014.26 1014.87 1015.11 1015.53 1016.00 1016.56 1016.96 1017.36 1017.69 1018.15 1018.84 1019.36 1019.63 1019.56 1019.67 1019.81
1000.82 1001.12 1000.94 1001.92 1002.37 1002.49 1003.11 1003.75 1004.12 1004.48 1004.96 1005.46 1006.11 1006.91 1008.22 1009.08 1009.63 1009.98 1010.27 1010.81 1011.30 1011.83 1012.14 1012.10 1011.52 1011.52 1012.45 1013.14 1013.83 1014.36 1014.86 1015.24 1015.39 1015.72 1016.26 1017.15 1018.00 1018.70 1019.10 1019.42 1019.56 1019.39 1019.67
999.95 1000.01 999.89 1000.19 1001.00 1001.62 1001.76 1002.40 1002.89 1003.18 1003.49 1003.87 1004.40 1005.19 1006.18 1007.24 1007.95 1008.40 1008.96 1009.09 1009.34 1009.74 1010.09 1010.63 1011.60 1011.96 1012.12 1011.96 1012.64 1013.77 1014.07 1014.55 1015.07 1015.53 1016.01 1016.46 1017.15 1017.78 1018.58 1018.86 1019.19 1019.13 1019.26
999.31 999.13 998.96 998.70 999.76 1000.45 1001.03 1001.18 1001.63 1002.16 1002.39 1002.61 1003.18 1003.70 1004.39 1005.50 1006.24 1007.07 1007.41 1007.55 1007.71 1008.09 1008.85 1009.49 1009.85 1010.40 1010.74 1011.24 1011.33 1012.32 1013.62 1014.07 1014.58 1014.95 1015.52 1015.93 1017.01 1017.73 1018.17 1018.15 1018.23 1018.52 1018.72
Thickness
5767 5768 5771 5774 5776 5771 5770 5769 5772 5781 5784 5784 5785 5785 5787 5788 5789 5790 5791 5789 5787 5785 5783 5780 5780 5780 5778 5778 5776 5773 5769 5765 5756 5747 5744 5743 5737 5734 5730 5724 5720 5714 5709
5769 5765 5768 5771 5770 5770 5770 5770 5774 5778 5780 5782 5783 5784 5785 5786 5788 5789 5787 5785 5784 5781 5779 5777 5775 5775 5772 5769 5770 5766 5763 5762 5752 5741 5740 5734 5732 5731 5727 5725 5720 5713 5704
5771 5767 5762 5765 5767 5769 5770 5771 5777 5780 5782 5782 5783 5782 5783 5785 5787 5787 5784 5783 5781 5780 5777 5772 5770 5768 5764 5763 5761 5758 5756 5756 5752 5742 5733 5734 5728 5726 5722 5720 5716 5710 5701
5780 5775 5771 5771 5774 5775 5773 5774 5779 5781 5781 5781 5781 5784 5787 5788 5786 5785 5784 5782 5780 5776 5771 5766 5763 5759 5756 5757 5752 5750 5749 5750 5748 5742 5734 5726 5720 5716 5710 5703 5699 5699 5693
5782 5779 5777 5780 5784 5782 5778 5777 5780 5781 5780 5781 5784 5787 5790 5788 5787 5784 5782 5779 5775 5769 5763 5759 5757 5753 5752 5750 5746 5743 5742 5740 5736 5733 5726 5717 5706 5700 5694 5693 5690 5690 5688
5798 5791 5791 5791 5790 5786 5782 5781 5781 5781 5783 5784 5787 5789 5788 5785 5782 5780 5781 5777 5772 5765 5759 5757 5753 5750 5747 5745 5742 5738 5734 5729 5724 5719 5712 5703 5695 5691 5688 5684 5681 5676 5671
5807 5804 5800 5795 5791 5790 5788 5786 5783 5784 5786 5787 5787 5786 5782 5779 5778 5777 5778 5775 5771 5765 5761 5757 5756 5750 5745 5741 5737 5733 5728 5723 5720 5713 5702 5694 5688 5685 5682 5679 5675 5672 5665
5814 5809 5803 5800 5796 5794 5793 5790 5788 5788 5787 5787 5785 5782 5778 5775 5775 5775 5774 5770 5767 5763 5759 5756 5751 5745 5740 5738 5736 5730 5722 5715 5710 5703 5695 5691 5686 5681 5676 5672 5670 5667 5662
5816 5812 5809 5804 5799 5797 5794 5792 5792 5791 5788 5786 5783 5779 5775 5772 5772 5772 5769 5766 5761 5758 5753 5751 5747 5741 5738 5735 5732 5726 5719 5709 5704 5699 5694 5687 5680 5675 5671 5666 5659 5655 5649
5819 5817 5813 5808 5803 5798 5797 5795 5795 5793 5789 5786 5781 5779 5775 5771 5770 5766 5764 5763 5757 5755 5751 5747 5744 5739 5734 5730 5728 5723 5714 5711 5706 5700 5692 5684 5677 5670 5664 5658 5651 5644 5639
5824 5819 5814 5810 5805 5801 5798 5796 5794 5791 5788 5784 5779 5777 5773 5769 5767 5764 5761 5760 5762 5757 5752 5746 5740 5734 5729 5726 5722 5717 5710 5704 5700 5698 5693 5685 5677 5668 5660 5654 5647 5640 5631
5829 5819 5813 5809 5807 5801 5797 5795 5792 5789 5785 5780 5776 5772 5771 5769 5767 5764 5762 5760 5760 5759 5754 5747 5737 5729 5723 5719 5716 5711 5705 5699 5696 5692 5684 5675 5668 5662 5656 5651 5644 5638 5631
5825 5818 5813 5808 5805 5802 5798 5794 5790 5787 5783 5779 5775 5773 5771 5768 5766 5764 5761 5758 5758 5758 5753 5746 5736 5727 5721 5714 5709 5703 5698 5693 5691 5683 5673 5667 5663 5660 5656 5647 5642 5638 5633
5826 5819 5814 5807 5803 5800 5799 5797 5795 5790 5787 5783 5779 5778 5776 5770 5768 5764 5760 5757 5755 5753 5747 5740 5733 5725 5718 5712 5708 5701 5690 5685 5681 5676 5668 5663 5662 5658 5651 5645 5637 5632 5627
5825 5821 5815 5810 5804 5801 5800 5800 5801 5800 5798 5792 5788 5786 5781 5775 5774 5769 5764 5761 5757 5751 5742 5734 5727 5721 5717 5711 5703 5698 5690 5680 5673 5670 5665 5661 5656 5653 5644 5639 5633 5625 5616
5825 5821 5816 5814 5808 5804 5802 5796 5794 5800 5801 5799 5796 5792 5790 5786 5779 5772 5765 5760 5755 5750 5742 5734 5727 5722 5718 5716 5709 5702 5693 5685 5676 5668 5662 5658 5652 5649 5637 5632 5628 5620 5611
5832 5824 5819 5817 5814 5810 5808 5804 5798 5792 5794 5796 5795 5794 5792 5790 5782 5773 5765 5758 5754 5748 5744 5740 5733 5728 5724 5718 5712 5705 5696 5687 5676 5666 5659 5656 5651 5642 5636 5627 5623 5618 5607
5836 5829 5827 5826 5820 5819 5816 5812 5808 5802 5798 5796 5793 5795 5791 5787 5781 5774 5766 5759 5750 5743 5743 5738 5734 5729 5725 5723 5712 5703 5696 5687 5678 5667 5660 5654 5647 5639 5632 5625 5619 5614 5603
5834 5834 5833 5829 5828 5824 5820 5818 5812 5808 5803 5799 5796 5790 5785 5782 5779 5773 5766 5763 5754 5746 5738 5732 5729 5727 5720 5718 5716 5707 5696 5685 5672 5664 5658 5651 5645 5638 5631 5624 5616 5607 5599
5836 5838 5834 5831 5830 5826 5821 5819 5816 5813 5807 5804 5801 5795 5786 5777 5773 5770 5765 5762 5755 5749 5744 5735 5728 5722 5720 5718 5712 5706 5693 5682 5672 5661 5649 5645 5640 5634 5625 5617 5610 5602 5594
5838 5837 5835 5833 5832 5828 5825 5820 5819 5818 5815 5810 5807 5802 5792 5784 5781 5775 5769 5764 5759 5753 5746 5734 5729 5729 5726 5718 5710 5700 5694 5687 5679 5666 5656 5646 5641 5634 5627 5619 5611 5598 5591
5836 5837 5836 5836 5835 5831 5828 5827 5823 5821 5820 5815 5811 5806 5792 5784 5783 5780 5774 5768 5762 5754 5747 5738 5730 5714 5722 5727 5720 5707 5697 5685 5675 5668 5660 5649 5640 5633 5624 5614 5604 5596 5585
5834 5835 5836 5835 5837 5834 5829 5829 5827 5825 5823 5823 5818 5813 5800 5794 5785 5783 5780 5773 5767 5760 5754 5742 5735 5727 5723 5716 5708 5704 5696 5688 5679 5671 5661 5653 5642 5628 5617 5606 5599 5592 5582
5836 5835 5839 5836 5835 5837 5834 5830 5830 5827 5827 5825 5823 5820 5807 5801 5794 5788 5784 5776 5769 5760 5749 5741 5742 5736 5726 5718 5710 5702 5693 5686 5680 5672 5662 5649 5635 5619 5607 5598 5589 5585 5572
5835 5836 5840 5840 5838 5834 5835 5833 5831 5831 5830 5829 5827 5823 5815 5806 5799 5793 5786 5782 5777 5771 5761 5750 5736 5728 5721 5720 5711 5698 5692 5684 5673 5659 5651 5645 5633 5618 5602 5594 5582 5576 5567
5832 5837 5840 5844 5838 5836 5832 5832 5831 5830 5830 5831 5828 5824 5819 5809 5802 5793 5789 5785 5781 5775 5766 5757 5749 5737 5727 5718 5714 5702 5691 5679 5670 5662 5650 5640 5626 5613 5598 5590 5582 5572 5563